Regional Weather Roundup
Issued by NWS Sterling, VA

Home | Current Version | Previous Version | Text Only | Print | Product List | Glossary On
Versions: 1 2 3 4 5 6 7 8 9 10 11 12 13 14 15 16 17 18 19 20 21 22 23 24 25 26 27 28 29 30 31 32 33 34 35 36 37 38 39 40 41 42 43 44 45 46 47 48 49 50
000
ASUS41 KLWX 080210
RWRLWX

REGIONAL WEATHER ROUNDUP
NATIONAL WEATHER SERVICE BALTIMORE MD/WASHINGTON DC
900 PM EST WED DEC 07 2016

Note: "FAIR" indicates few or no clouds below 12,000 feet
with no significant weather and/or obstructions to visibility.
 TC=TEMPERATURE CELSIUS

 * =Non NWS site. Station does not report precipitation (e.g. rain,
    snow, etc.), thunder, or fog.

DCZ001-MDZ009-015-VAZ040>042-051-053>054-080300-
WASHINGTON METRO

CITY           SKY/WX    TMP DP  RH WIND       PRES   REMARKS
WASHINGTON NAT CLOUDY    43  36  76 S3        30.08S
DULLES         MOCLDY    32  29  88 CALM      30.07S
ANDREWS AFB    CLOUDY    35  30  83 S2        30.06S
FT BELVOIR     PTCLDY    33  30  88 CALM      30.08S
QUANTICO       CLOUDY    37  33  85 NW8       30.10R
COLLEGE PARK*  CLOUDY    32  32 100 CALM      30.07S
LEESBURG*      CLEAR     34  34 100 W5        30.08R
MANASSAS*      CLEAR    N/A N/A N/A CALM      30.08
GAITHERSBURG*  CLEAR     30  27  86 CALM      30.10S

$$

MDZ006>007-011-014-080300-
BALTIMORE METRO

CITY           SKY/WX    TMP DP  RH WIND       PRES   REMARKS
BWI AIRPORT    MOCLDY    34  32  92 CALM      30.07S
MD SCIENCE CTR   N/A     44  31  60 MISG      30.06F
MARTIN STATE   CLEAR     36  36 100 CALM      30.08F
ANNAPOLIS      PTCLDY    41  35  79 CALM      30.07F
FORT MEADE*    CLEAR     32  30  93 CALM      30.09F

$$

MDZ012-015-019>023-080300-
MARYLAND EASTERN SHORE

CITY           SKY/WX    TMP DP  RH WIND       PRES   REMARKS
OCEAN CITY     PTCLDY    36  35  96 CALM      30.08S FOG
SALISBURY      MOCLDY    35  34  96 CALM      30.08S
EASTON*        CLEAR     37  34  87 CALM      30.11S

$$

MDZ017>025-080300-
SOUTHERN MARYLAND

CITY           SKY/WX    TMP DP  RH WIND       PRES   REMARKS
PATUXENT RIVER MOCLDY    36  34  92 CALM      30.08S
ST INIGOES     MOCLDY    37  33  85 CALM      30.08S
LEONARDTOWN*   MOCLDY    36  32  87 CALM      30.09F

$$

MDZ003>005-080300-
NORTH CENTRAL MARYLAND

CITY           SKY/WX    TMP DP  RH WIND       PRES   REMARKS
FREDERICK*     NOT AVBL
HAGERSTOWN APT CLOUDY    40  16  37 CALM      30.06R
WESTMINSTER*   MOCLDY    36  30  80 W3        30.05R

$$

MDZ501>502-080300-
WESTERN MARYLAND

CITY           SKY/WX    TMP DP  RH WIND       PRES   REMARKS
OAKLAND*       PTCLDY    30  19  64 W6        30.01S
CUMBERLAND*    NOT AVBL

$$

VAZ025>031-080300-
SHENANDOAH VALLEY

CITY           SKY/WX    TMP DP  RH WIND       PRES   REMARKS
WINCHESTER*    CLEAR     32  25  74 CALM      30.06S
FRONT ROYAL*   FAIR      34  32  93 CALM      30.06R
LURAY*         FAIR      32  32 100 CALM      30.06R
NEW MARKET*    FAIR      30  28  94 CALM      30.05S
STAUNTON*      CLEAR     32  31  96 CALM      30.07S
WAYNESBORO*    FAIR      34  30  86 CALM      30.05S

$$

WVZ021-048>050-054>055-080300-
EASTERN WEST VIRGINIA PANHANDLE

CITY           SKY/WX    TMP DP  RH WIND       PRES   REMARKS
MARTINSBURG    CLEAR     40  21  46 W7        30.06S
PETERSBURG*    CLOUDY    31  28  88 CALM      30.09S

$$

VAZ036>039-050-080300-
CENTRAL FOOTHILLS

CITY           SKY/WX    TMP DP  RH WIND       PRES   REMARKS
CHARLOTTESVILL CLEAR     40  33  76 NW5       30.06S
CULPEPER*      CLEAR     32  32  99 CALM      30.09R
ORANGE*          N/A     36  36 100 CALM      30.09R
GORDONSVILLE*  FAIR      33  33  99 CALM      30.07R
WARRENTON*     FAIR      29  26  86 CALM      30.07R

$$

VAZ055>057-080300-
NORTH AND CENTRAL PIEDMONT

CITY           SKY/WX    TMP DP  RH WIND       PRES   REMARKS
FREDERICKSBRG* PTCLDY    37  35  93 CALM      30.08R
STAFFORD*      PTCLDY    32  32 100 CALM      30.12R

$$

NCZ024-NYZ072-PAZ021-071-VAZ022-071-080300-
OTHER REGIONAL OBSERVATIONS

CITY           SKY/WX    TMP DP  RH WIND       PRES   REMARKS
NEW YORK CITY  CLOUDY    45  33  63 CALM      30.05F
PHILADELPHIA   PTCLDY    40  30  67 CALM      30.06F
PITTSBURGH     CLOUDY    37  23  56 SW3       30.05F
ROANOKE        PTCLDY    43  30  60 CALM      30.08F
RALEIGH        MOCLDY    45  42  89 CALM      30.08R

$$

ANZ530>537-080300-
MARINE OBSERVATIONS

STATION/POSITION TIME  TEMP    WIND        PRES
                       AIR SEA DIR/SP/G
                 (UTC) (F)     (DEG/KT/KT) (MB)
THOMAS PT LIGHT  0200   45 49  250/  3/  4   N/A
BALT KEY BRIDGE  0148   43     230/  4/  4 1018.2F
COVE POINT       0148   45      CALM  /  1 1018.9F
LEWISETTA        0148   42 49  230/  2/  2 1018.3F
SOLOMONS ISLAND  0148           CALM  /  1   N/A
PINEY POINT      0148          100/  3/  3   N/A

$$




USA.gov is the U.S. government's official web portal to all federal, state and local government web resources and services.